Wind_Speed
35 33 32 30 29 29 28 27 26 22 20 16 15 14 13 12 12 11 11 11 11 10 10 9 8 8 8 8 8 8 9 10 12 13 14 16 18 19 20 22 23 24 26 27
41 39 38 35 32 31 29 28 26 23 20 17 16 14 14 13 13 12 12 11 11 11 12 12 12 11 11 11 10 11 12 13 14 15 16 17 18 19 20 22 24 25 27 29
44 43 43 41 35 33 31 29 28 25 21 19 18 17 16 15 15 14 14 13 13 13 14 14 14 13 13 13 13 14 14 15 15 16 17 18 19 21 22 24 26 27 29 31
46 45 46 41 37 36 34 31 30 27 24 22 21 21 20 18 17 18 17 16 15 15 15 15 15 15 15 15 15 15 17 18 18 19 20 20 22 23 25 27 28 29 31 32
44 45 45 42 40 38 36 35 32 29 26 24 24 24 22 20 19 19 18 18 17 16 16 16 16 16 16 16 17 18 18 19 20 21 22 23 25 26 28 29 31 32 33 34
41 43 44 41 39 39 38 36 32 31 30 28 27 25 23 22 22 21 21 20 19 17 17 17 17 17 18 18 19 19 20 21 22 23 24 25 27 28 30 31 33 33 35 36
37 39 40 38 37 38 38 35 32 32 32 30 28 27 26 26 25 24 23 22 21 19 18 18 18 18 19 20 21 22 23 24 24 25 27 27 29 30 31 32 33 34 36 37
34 36 36 34 35 35 35 34 32 32 32 31 30 29 27 27 25 24 24 24 23 22 21 20 20 20 21 22 23 23 24 26 26 27 29 30 30 32 33 34 35 35 37 38
32 33 32 32 32 32 32 33 31 31 31 32 32 31 29 28 28 26 25 27 25 23 23 22 22 23 23 24 25 26 27 28 29 29 30 31 33 34 35 36 36 37 38 39
27 27 28 29 29 29 29 29 29 30 30 31 31 30 29 28 28 26 26 25 25 24 24 24 24 24 25 25 26 27 29 30 30 31 32 33 35 36 37 37 39 40 41 42
21 21 22 23 25 25 26 26 27 28 28 29 29 29 29 29 28 27 27 27 26 26 26 26 26 26 26 27 27 28 30 31 32 33 34 35 37 38 39 40 42 43 44 46
16 16 18 19 20 21 22 22 23 24 25 25 26 25 25 25 25 25 26 26 27 26 26 25 25 26 27 27 28 30 31 32 34 35 36 37 39 40 42 43 45 46 47 48
14 14 14 16 17 18 19 19 20 21 22 22 23 23 24 24 24 24 24 24 25 24 23 23 24 26 27 28 30 31 32 34 35 37 38 40 41 43 44 46 47 48 49 50
10 12 12 12 13 14 15 16 18 18 19 19 21 22 22 22 22 22 22 21 21 22 23 24 25 27 28 29 31 32 34 35 37 38 40 42 43 45 47 48 49 51 51 52
8 10 11 12 12 13 13 13 15 16 16 16 18 19 20 20 19 18 18 19 20 21 22 24 26 27 29 31 32 34 36 38 40 41 43 44 46 47 48 50 51 52 52 52
8 10 12 11 11 11 11 11 12 12 13 14 14 14 14 14 15 16 17 18 20 21 23 25 27 29 31 32 34 36 38 40 41 43 44 45 47 48 49 50 50 51 51 52
8 8 9 9 8 8 9 9 11 12 11 11 12 12 13 13 14 16 18 19 21 23 25 27 29 31 33 35 36 38 40 41 43 44 45 47 48 48 49 50 50 50 50 50
8 8 8 8 7 7 8 9 9 9 9 10 11 12 13 15 16 18 20 22 24 25 27 29 31 33 35 37 38 40 42 43 44 45 46 47 47 47 48 48 48 48 47 47
7 7 7 8 8 7 7 7 8 8 9 10 12 14 15 16 18 20 22 24 26 27 29 31 33 35 37 38 40 42 43 43 44 45 45 45 45 45 45 45 45 45 45 44
8 7 7 7 7 7 7 8 9 10 11 13 14 15 17 19 21 22 24 26 28 30 32 33 35 37 38 40 41 41 42 42 42 42 42 42 42 42 42 42 42 41 40 39
9 8 8 8 7 8 9 10 11 12 14 15 16 18 19 21 23 25 26 28 30 32 34 35 37 38 39 39 39 40 40 40 40 40 40 40 40 39 39 38 38 37 37 36
9 8 8 9 9 10 11 12 13 15 17 18 19 21 22 24 26 27 29 31 32 34 35 36 37 37 38 38 38 38 38 39 38 38 38 37 37 37 36 36 35 34 33 33
9 9 10 11 12 13 14 15 16 17 19 20 22 23 25 26 28 30 31 32 34 35 35 36 36 36 36 36 36 36 36 36 36 36 35 35 34 34 33 33 32 31 30 29
11 11 12 13 15 16 17 18 19 20 21 23 24 26 27 29 30 31 32 33 34 34 34 34 34 34 34 34 34 34 34 34 33 33 32 32 32 31 31 30 29 28 28 27
14 14 14 15 16 18 19 20 21 23 24 25 27 28 29 30 31 32 32 33 33 33 32 32 32 32 32 32 32 32 32 31 31 31 30 30 29 28 28 28 28 27 27 26
15 16 17 18 19 20 21 22 24 25 26 27 28 29 30 30 31 31 31 31 31 30 30 31 31 30 30 30 30 30 30 30 29 29 28 27 27 27 27 27 27 26 26 25
18 19 19 20 21 22 23 24 25 26 27 28 29 29 30 30 30 29 29 30 29 29 29 29 29 29 29 29 29 29 29 28 27 27 27 27 27 26 26 26 26 25 25 24
Wind_Direction
262 260 257 253 252 256 260 263 268 274 280 279 281 284 289 292 288 283 280 277 273 266 259 257 257 256 256 257 254 249 247 248 250 254 255 256 256 259 260 260 265 268 267 268
261 262 262 259 255 256 257 261 265 270 277 277 277 282 284 287 283 278 280 278 271 263 258 255 254 254 253 255 257 258 258 258 258 258 258 260 261 263 264 265 268 271 272 272
259 259 261 261 258 258 258 260 263 267 272 273 273 277 278 280 278 273 275 275 272 271 262 259 257 255 256 256 257 260 262 265 267 268 267 267 268 269 270 272 272 274 275 275
257 258 259 261 259 257 256 257 260 263 265 268 271 272 273 274 275 273 273 269 269 268 264 262 260 259 259 261 263 265 268 270 271 272 272 276 276 275 276 276 276 276 277 276
256 257 259 259 258 257 257 255 255 258 262 265 267 270 271 270 272 272 270 265 264 263 260 261 261 260 261 263 266 269 272 273 273 273 274 276 277 277 279 279 279 279 278 277
255 256 257 258 258 257 258 256 254 257 259 262 264 265 265 266 266 269 268 264 263 260 257 256 257 260 264 267 268 270 272 274 274 275 276 277 278 279 279 280 279 278 279 279
254 255 257 258 257 256 255 256 254 253 254 256 258 260 262 263 265 264 262 262 260 255 253 256 258 263 266 268 269 271 274 275 276 279 279 280 281 282 282 282 281 281 282 282
254 254 256 256 256 255 255 253 252 250 250 251 253 257 259 260 261 262 260 258 256 252 253 256 260 264 267 268 270 273 276 278 279 281 282 283 284 285 285 285 285 284 284 284
254 255 256 254 253 253 253 252 250 247 247 249 251 254 255 256 258 259 256 256 251 251 253 255 259 264 268 270 273 275 278 280 281 282 284 285 286 287 288 287 288 288 288 287
253 253 252 251 249 248 249 247 246 246 246 248 250 251 252 254 254 255 254 253 250 251 255 259 262 265 269 272 275 278 281 282 284 286 287 288 288 290 290 290 290 290 289 289
250 248 245 246 245 243 245 246 245 243 243 245 245 247 249 251 250 250 250 253 252 253 256 261 265 268 270 274 277 279 282 284 286 288 289 289 290 291 290 290 290 290 290 290
244 241 240 238 237 238 239 238 236 235 236 239 242 243 242 242 243 245 247 250 251 253 258 262 265 269 273 277 280 283 284 286 287 289 289 290 291 291 291 291 291 291 290 290
237 235 231 229 228 228 227 227 229 229 231 233 233 236 239 240 239 240 243 246 249 253 257 261 266 271 275 278 281 283 285 286 288 289 290 291 291 292 292 292 292 291 291 290
229 225 223 223 222 222 220 220 222 225 226 226 230 230 230 233 234 235 239 244 247 252 257 264 270 275 278 281 283 285 287 288 289 290 291 292 292 292 292 292 292 292 292 292
215 214 212 214 213 211 213 215 216 220 222 224 225 224 225 228 231 236 241 247 254 260 266 271 275 278 281 283 285 287 288 290 291 292 293 293 294 294 294 294 294 294 293 293
189 180 180 183 184 187 192 198 204 207 212 215 216 219 225 233 241 248 254 261 266 270 274 277 280 283 285 287 288 290 291 292 293 294 294 295 295 295 295 295 295 295 295 295
175 170 169 170 170 176 183 191 200 205 210 215 222 230 238 244 251 259 265 269 273 276 279 282 284 287 288 290 291 292 293 294 295 295 295 295 296 296 297 297 297 297 297 297
179 173 179 186 187 187 188 196 207 216 225 234 241 248 255 261 267 271 274 276 278 281 284 286 288 289 290 291 292 294 295 296 296 297 297 297 297 298 298 298 299 299 299 299
192 186 186 188 189 192 200 213 231 242 248 255 258 261 267 271 274 277 279 281 283 285 286 288 289 290 292 293 295 295 296 297 297 298 298 299 299 300 301 301 301 301 301 302
203 199 196 202 213 224 233 240 248 255 260 264 267 270 273 275 278 280 282 283 284 286 288 290 292 293 294 295 296 297 298 298 299 299 299 300 301 302 303 303 304 304 304 304
219 220 219 223 230 241 249 254 259 262 265 267 270 273 276 279 282 283 285 286 288 289 291 293 294 295 296 296 297 298 299 299 299 300 301 301 303 303 304 305 306 307 307 307
221 226 228 235 243 251 257 263 266 270 272 275 277 280 283 284 285 287 288 290 291 292 294 295 296 296 297 298 298 299 299 300 301 302 303 303 304 305 305 306 307 308 308 308
227 235 244 250 257 263 269 272 275 278 280 282 283 285 286 288 289 291 292 293 294 295 296 296 297 297 298 300 300 301 302 302 303 304 304 305 306 306 307 308 309 309 310 310
243 249 256 262 267 272 275 279 281 283 284 286 287 288 290 291 293 294 294 295 296 296 296 297 298 299 301 302 303 303 304 305 305 306 306 306 306 307 308 309 310 310 310 311
255 260 264 268 272 275 278 280 283 285 287 288 290 291 293 294 295 296 296 296 296 296 296 297 299 301 302 303 304 305 307 307 307 308 308 308 308 308 309 310 311 312 312 313
261 265 270 274 277 279 280 282 284 286 288 289 291 292 294 294 295 296 297 297 297 298 298 299 301 302 303 304 306 307 308 308 308 309 310 310 310 310 311 312 313 313 314 314
267 271 274 276 277 280 282 284 285 286 288 289 291 292 293 294 295 297 298 299 298 299 299 300 301 302 303 305 307 309 309 309 309 310 311 311 312 312 312 312 312 313 314 315
Height
5802 5805 5808 5810 5813 5815 5817 5819 5820 5822 5823 5824 5824 5824 5824 5824 5823 5822 5822 5822 5821 5821 5821 5822 5822 5822 5822 5822 5823 5823 5825 5825 5826 5827 5828 5829 5830 5831 5831 5832 5832 5833 5833 5833
5793 5796 5798 5801 5805 5807 5810 5812 5814 5816 5818 5820 5820 5820 5820 5820 5820 5819 5819 5819 5819 5819 5819 5819 5820 5820 5820 5820 5821 5821 5822 5823 5823 5824 5824 5825 5825 5826 5826 5827 5827 5827 5826 5826
5783 5786 5787 5789 5796 5800 5803 5805 5808 5810 5814 5814 5815 5816 5816 5816 5816 5816 5815 5815 5815 5815 5816 5816 5817 5817 5818 5818 5818 5818 5819 5819 5820 5820 5820 5820 5821 5821 5821 5821 5821 5820 5819 5818
5772 5777 5776 5784 5788 5791 5794 5798 5801 5804 5806 5808 5810 5810 5811 5811 5811 5811 5811 5811 5812 5811 5811 5812 5812 5813 5814 5814 5814 5815 5815 5815 5815 5816 5815 5815 5815 5815 5815 5814 5813 5812 5811 5809
5762 5764 5766 5773 5777 5782 5785 5789 5793 5796 5799 5801 5802 5804 5805 5805 5805 5806 5806 5806 5807 5807 5807 5807 5808 5809 5809 5810 5810 5810 5810 5810 5810 5810 5810 5810 5809 5809 5808 5807 5805 5804 5802 5801
5752 5754 5756 5764 5768 5771 5776 5779 5785 5788 5791 5793 5795 5797 5799 5799 5799 5800 5800 5801 5801 5801 5802 5803 5804 5804 5805 5805 5805 5805 5805 5805 5804 5804 5804 5803 5802 5801 5800 5798 5796 5795 5793 5791
5743 5744 5747 5754 5758 5762 5767 5772 5776 5778 5782 5785 5787 5790 5791 5792 5793 5794 5794 5795 5795 5796 5796 5797 5798 5799 5799 5800 5800 5800 5800 5799 5798 5797 5796 5795 5794 5793 5791 5789 5787 5785 5783 5781
5735 5736 5742 5745 5748 5752 5757 5761 5765 5769 5772 5775 5778 5780 5782 5784 5785 5786 5787 5788 5789 5790 5791 5791 5792 5793 5794 5794 5794 5793 5793 5792 5791 5790 5789 5787 5785 5784 5782 5779 5777 5775 5772 5770
5727 5731 5733 5736 5739 5743 5747 5752 5755 5759 5763 5766 5769 5772 5774 5776 5777 5779 5779 5781 5782 5783 5785 5785 5786 5787 5787 5787 5787 5786 5785 5784 5783 5781 5780 5778 5776 5774 5771 5769 5766 5764 5761 5758
5719 5721 5724 5727 5730 5734 5738 5742 5746 5750 5754 5757 5760 5763 5765 5767 5769 5771 5772 5774 5775 5777 5778 5779 5779 5779 5779 5779 5779 5778 5777 5776 5774 5772 5770 5768 5766 5763 5761 5758 5755 5752 5749 5746
5712 5715 5717 5719 5723 5726 5730 5734 5737 5741 5745 5748 5751 5754 5756 5758 5760 5762 5764 5766 5768 5769 5770 5771 5771 5771 5771 5771 5770 5770 5769 5767 5765 5763 5760 5758 5756 5753 5750 5747 5744 5741 5737 5733
5708 5710 5711 5714 5716 5720 5723 5726 5730 5734 5737 5740 5743 5746 5748 5750 5752 5755 5757 5759 5761 5762 5763 5763 5764 5764 5764 5763 5762 5761 5760 5758 5756 5754 5751 5748 5745 5742 5738 5735 5731 5727 5723 5719
5703 5705 5707 5709 5712 5715 5718 5721 5724 5727 5730 5733 5736 5740 5743 5745 5746 5748 5750 5752 5754 5755 5756 5756 5757 5757 5756 5755 5754 5752 5751 5749 5746 5744 5741 5737 5734 5731 5727 5722 5718 5714 5709 5704
5700 5702 5703 5705 5708 5711 5713 5716 5719 5722 5725 5728 5731 5734 5737 5739 5741 5743 5744 5746 5747 5748 5749 5749 5749 5749 5748 5747 5745 5743 5741 5739 5736 5733 5730 5726 5722 5718 5714 5709 5704 5699 5694 5689
5699 5700 5702 5703 5705 5708 5710 5713 5716 5719 5722 5725 5727 5730 5732 5734 5736 5737 5739 5740 5741 5741 5742 5742 5742 5741 5740 5738 5736 5734 5731 5728 5725 5721 5717 5713 5709 5705 5700 5695 5690 5685 5679 5674
5698 5699 5700 5702 5704 5706 5709 5712 5714 5717 5719 5722 5724 5726 5728 5730 5731 5733 5734 5734 5735 5735 5735 5735 5734 5732 5731 5729 5726 5724 5720 5717 5713 5709 5705 5701 5696 5691 5686 5681 5676 5670 5665 5659
5697 5698 5700 5702 5704 5706 5708 5711 5713 5715 5717 5719 5721 5723 5724 5726 5727 5728 5729 5729 5729 5729 5728 5727 5725 5723 5721 5719 5716 5713 5709 5705 5701 5697 5692 5688 5683 5678 5672 5667 5662 5656 5651 5645
5697 5698 5700 5703 5705 5706 5708 5710 5712 5714 5716 5717 5719 5720 5721 5722 5723 5723 5723 5723 5722 5721 5720 5718 5716 5714 5712 5709 5705 5702 5698 5693 5689 5684 5679 5675 5670 5664 5659 5654 5648 5643 5638 5632
5697 5698 5700 5702 5704 5706 5707 5709 5710 5712 5713 5714 5716 5717 5717 5717 5717 5717 5717 5716 5714 5713 5712 5710 5707 5705 5701 5698 5694 5690 5686 5681 5676 5672 5667 5662 5657 5652 5647 5641 5636 5630 5625 5620
5696 5697 5699 5701 5703 5704 5706 5707 5708 5709 5710 5711 5712 5712 5712 5712 5712 5711 5710 5708 5707 5705 5703 5700 5697 5694 5690 5687 5683 5678 5674 5669 5665 5660 5655 5650 5645 5640 5635 5630 5625 5619 5614 5609
5694 5696 5697 5699 5701 5702 5703 5704 5705 5706 5706 5707 5707 5707 5706 5706 5705 5704 5702 5700 5698 5696 5693 5690 5687 5683 5679 5676 5671 5667 5663 5658 5654 5649 5644 5639 5634 5629 5625 5619 5614 5609 5604 5600
5692 5694 5695 5697 5698 5699 5700 5700 5701 5701 5701 5701 5701 5700 5699 5698 5697 5695 5693 5691 5688 5685 5683 5679 5676 5672 5669 5665 5660 5656 5652 5647 5643 5638 5634 5629 5624 5619 5615 5610 5605 5600 5596 5591
5689 5691 5692 5693 5694 5695 5695 5695 5696 5695 5695 5695 5694 5693 5692 5690 5688 5686 5684 5681 5678 5675 5672 5668 5665 5662 5658 5654 5650 5646 5642 5637 5633 5628 5624 5619 5615 5610 5606 5601 5597 5592 5588 5584
5686 5687 5688 5689 5689 5689 5690 5689 5689 5689 5688 5687 5686 5685 5683 5681 5679 5676 5674 5671 5668 5665 5662 5658 5655 5652 5648 5644 5640 5636 5632 5628 5624 5619 5615 5610 5606 5602 5598 5593 5589 5585 5581 5577
5682 5683 5683 5684 5684 5684 5684 5683 5683 5682 5681 5679 5678 5676 5674 5672 5669 5667 5664 5661 5658 5655 5652 5649 5646 5642 5639 5635 5632 5628 5624 5619 5615 5611 5607 5603 5598 5594 5591 5587 5583 5579 5575 5571
5677 5678 5678 5678 5678 5678 5677 5676 5676 5674 5673 5671 5669 5667 5665 5663 5660 5657 5655 5652 5649 5646 5643 5640 5637 5634 5631 5627 5623 5620 5616 5612 5608 5603 5599 5595 5592 5588 5584 5580 5576 5573 5569 5565
5672 5672 5672 5672 5671 5671 5670 5669 5668 5666 5665 5663 5661 5659 5656 5654 5651 5649 5646 5643 5640 5638 5635 5632 5629 5626 5623 5619 5616 5612 5608 5604 5600 5596 5593 5589 5585 5581 5577 5574 5570 5566 5563 5559